DELTA 1 DEB, 42649

Orbit data source: Space-Track

DELTA 1 DEB, 42649 is space debris in SSO originally from a launch on Thu, 12 Jun 1975 UTC launched from the Air Force Western Test Range (AFWTR). Debris objects in space refer to the collection of defunct objects orbiting the Earth. Examples of debris include non-operational satellites, rocket bodies, and fragments generated from explosions, collisions, or faulty payload assembly.

Loading next visibility...
Identifier
42649, 1975-052MJ
Orbit
SSO
Country
Flag of USUS
Related business
Manufacturer
Unknown
Mission
Spacecraft
Bus & Motor
Unknown
Mass
Unknown
Launch date (UTC)
1975-06-12 (50 years ago)
Launch vehicle
Unknown
Launch site
Air Force Western Test Range (AFWTR)
Object type
Payload
Rocket body
Debris
Shape & HBR
Unknown shape, 0.1 m
Radar Cross Section
Small (<0.1 m²)

Expand to show TLE details & history
Last TLE update: 1 week ago

TLE from 1 week ago
0 DELTA 1 DEB
1 42649U 75052MJ  25280.35434807  .00000155  00000-0  36711-3 0  9997
2 42649  99.7853 152.0225 0035186 129.2749 231.1508 13.39132014585131
Epoch: 2025-10-07T08:30Z
TLE epoch observation values (Epoch: 2025-10-07T08:30:15.673Z)
Latitude
-0.00009°
Longitude
8.21277°
Altitude
1,131.874 km
Speed
7.279 km/s
True Right ascension
10h 08m 05s
True Declination
0° 00' 00"
Sunlit
Object was in daylight at epoch
Visualization orbit readout
Latitude
Unknown
Longitude
Unknown
Altitude
Unknown
Speed
Unknown
Apparent Right ascension
Unknown
Apparent Declination
Unknown
Sunlit
N/A
Visualization observer readout
Local Sidereal Time
04:37:55
Azimuth
Unknown
Elevation
Unknown
Doppler factor
Unknown
Orbital elements
Apogee altitude
1,136.182 km
Perigee altitude
1,083.487 km
Semi-major axis
7,487.972 km
Eccentricity
0.00352
Inclination
99.7853°
RAAN
152.0225°
Arg. of periapsis
129.2749°
True anomaly
230.83765°
Mean anomaly
231.1508°
Eccentric anomaly
230.99414°
Mean motion
3.34963 °/min
Orbital period
107.47 mins
BSTAR
0.00036711
Loading maneuver chart data...
Computing Atmospheric mass density...
Loading historical data...
Loading historical data...
Loading historical data...
Loading historical data...
Loading historical data...
Loading historical data...
Loading historical data...

Documentation

Showing up to 5 results
|